Location: Kawakawa
(35.3830°S, 174.0670°E)
Time: 18:23:37
(UTC+12:00)

Cosmos 332 Rocket - Pass Details

Date: 15 August 2020
Orbit: 681 x 705 km, 74.0° (Epoch: 25 September)

Event Time Altitude Azimuth Distance (km) Brightness Sun altitude
Rises 18:32:59 0° 342° (NNW) 3,083 7.6 -8.9°
Reaches altitude 10° 18:35:17 10° 341° (NNW) 2,174 6.8 -9.4°
Maximum altitude 18:40:12 83° 253° (WSW) 722 3.9 -10.4°
Drops below altitude 10° 18:45:12 10° 164° (SSE) 2,201 6.1 -11.4°
Sets 18:47:32 0° 163° (SSE) 3,125 6.9 -11.9°
